sat.trackr.live / text

‹ back to catalog

STARLINK-34396

NORAD 64436 · 2025-129AA

PAYLOAD ACTIVE UNKNOWN

§ Identity

Operator
Country
US
Launch date
2025-06-17
Launch site
AFWTR
Launch vehicle
Mass (kg)
RCS (m²)

Purposes: comms

External: N2YO · Heavens-Above · Gunter

§ Orbital elements

Epoch: 2026-05-24T23:44:11.063616Z

Period
96.11 min
Inclination
70.0008°
Eccentricity
0.0003080
Mean motion
14.98336124 rev/d
Perigee alt
569.9 km
Apogee alt
574.2 km
Semi-major
6,950.2 km
B*
1.9532e-4
RAAN
242.1666°
Arg perigee
269.4484°
Mean anomaly
90.6322°
Rev number
5,265

§ Raw data

STARLINK-343961 64436U 25129AA  26144.98901694  .00002239  00000+0  19532-3 0  99932 64436  70.0008 242.1666 0003080 269.4484  90.6322 14.98336124 52656

JSON: /api/v1/satellites/64436 · /tle

For live sub-satellite position, see the globe view (requires WebGL).

§ Visibility from observer

Set your observer location to see the next 7 days of passes ≥ 10°. The values pass through the URL so the page stays shareable.

No JS? Fill the form by hand. The geolocation button needs JavaScript.